Theta_e
343 342 339 339 339 340 345 344 337 335 337 340 342 341 340 341 343 347 348 346 341 340 341 344 345 346 347 345 347 349 348 347 347 346 343 340 330 319 320 322 326 338
341 340 338 338 339 338 342 345 340 335 337 338 341 340 337 338 341 346 350 349 344 341 340 340 341 344 346 345 346 346 345 346 346 346 344 342 337 325 318 320 321 329
340 339 337 337 336 335 339 345 344 339 338 338 341 345 343 340 341 345 349 350 347 345 344 341 339 340 343 343 345 345 344 344 344 346 346 344 341 335 323 319 319 322
339 338 336 334 333 333 337 342 343 341 340 339 339 345 349 348 348 348 349 350 349 348 347 345 341 339 340 342 343 343 342 342 342 345 347 346 344 342 334 325 319 321
337 336 335 334 334 335 336 337 339 340 342 343 341 342 347 350 352 352 351 351 350 350 347 346 344 342 342 343 344 342 341 340 340 343 346 348 346 344 343 335 324 322
336 335 336 335 335 337 337 334 336 340 343 345 345 344 346 347 350 353 354 351 351 351 349 347 345 344 343 344 344 344 343 340 339 340 344 347 347 345 345 342 335 326
336 335 335 336 336 337 337 336 336 340 343 346 347 348 349 348 347 349 352 353 352 351 350 348 346 343 341 341 343 344 344 343 342 341 341 344 347 347 345 344 342 335
336 336 335 336 337 337 337 337 337 339 341 346 349 349 350 349 347 346 347 351 352 350 349 349 349 346 342 341 341 341 343 344 344 343 342 342 345 347 347 345 344 341
337 336 336 336 337 337 337 337 338 340 341 344 348 350 350 349 350 348 346 347 350 350 348 347 350 350 347 346 342 340 341 344 345 344 343 342 343 344 346 346 344 343
339 338 337 337 337 336 337 336 337 338 340 341 343 348 352 351 350 351 350 348 347 349 349 346 348 351 350 349 347 341 339 340 341 344 343 342 341 341 343 344 343 342
340 340 338 337 337 335 336 336 336 337 339 340 340 344 350 351 350 350 352 350 347 347 348 345 345 347 349 350 350 347 341 337 337 341 343 342 340 340 341 342 342 341
339 341 340 337 336 337 337 335 337 339 342 341 339 340 343 348 350 349 350 351 346 343 344 345 343 344 345 346 348 349 346 341 337 339 343 343 341 339 339 340 341 341
339 339 340 339 337 338 340 339 339 342 345 345 343 342 341 345 349 350 348 348 347 343 341 343 343 341 342 343 345 347 349 346 340 337 341 345 344 342 340 338 340 341
339 339 340 340 340 339 340 343 344 345 348 349 350 351 349 347 351 351 348 347 347 345 343 342 344 342 340 341 343 345 349 350 345 338 339 344 347 347 345 340 340 341
339 339 340 340 342 341 339 342 346 349 350 350 353 355 356 355 354 354 352 350 348 348 347 347 346 344 341 340 341 342 345 349 348 342 338 341 346 350 351 347 343 342
341 338 338 339 341 342 340 341 345 349 351 351 352 354 356 358 358 356 356 354 352 351 351 351 350 346 342 339 338 338 338 342 346 345 343 340 341 346 351 351 349 347
343 339 337 337 338 340 341 341 344 348 350 352 352 353 354 357 359 358 357 356 356 355 353 351 349 347 343 339 336 335 334 336 339 342 343 342 340 342 345 349 351 350
348 342 339 339 337 338 338 340 342 345 347 350 352 352 353 355 357 358 357 355 357 358 356 352 347 345 343 340 337 335 334 335 336 337 340 342 341 340 340 343 346 348
353 347 343 341 339 337 336 337 339 342 344 346 349 352 352 354 355 357 358 356 355 358 359 357 352 346 344 342 341 339 338 337 336 336 337 338 338 339 339 339 340 342
357 354 349 345 342 340 339 339 338 339 340 343 347 350 352 353 353 354 356 356 355 355 357 360 359 355 351 347 344 342 342 341 340 339 338 338 339 339 338 337 338 339
360 357 355 352 349 346 343 341 340 341 341 343 346 348 348 350 351 351 353 354 354 354 354 356 359 360 358 354 349 344 344 343 343 342 341 341 341 342 341 340 340 341
362 360 360 359 357 355 351 347 344 344 344 346 348 351 350 349 350 350 350 351 352 353 353 352 354 357 359 358 355 351 349 347 346 345 345 345 344 345 345 346 346 346
362 362 364 363 361 359 356 353 349 348 348 351 353 353 355 355 353 351 351 351 351 352 352 351 351 353 356 357 356 356 356 354 351 350 349 347 346 346 348 349 351 351
362 364 365 365 362 361 359 356 355 354 355 355 354 355 357 359 359 357 354 354 354 353 353 353 352 352 354 355 357 359 359 359 357 356 354 351 348 348 349 352 352 353
362 364 365 364 362 363 360 358 357 356 357 358 358 356 356 359 362 362 360 359 358 356 357 357 357 357 356 356 356 358 359 360 360 360 359 356 354 353 353 352 353 354
363 364 365 364 363 363 362 360 360 360 360 361 361 360 359 358 360 362 363 364 363 363 361 361 360 360 359 358 358 359 360 360 361 361 360 359 358 358 356 355 354 354
Wind_Speed
34 33 33 32 32 31 30 30 29 29 29 29 28 28 26 24 22 21 21 21 20 20 20 19 18 17 16 16 17 18 17 15 14 14 12 11 11 14 15 15 15 14
35 34 33 33 33 32 31 31 30 29 29 27 26 27 26 26 25 23 22 22 21 20 21 21 20 19 18 17 18 18 18 17 16 16 14 13 12 13 15 15 15 15
36 35 35 34 34 33 32 31 30 30 29 27 26 26 26 26 26 25 24 24 23 21 21 22 21 21 20 19 19 19 18 18 18 17 16 15 14 13 14 16 16 16
38 37 36 35 35 34 33 32 32 31 30 30 29 28 26 25 25 25 25 25 25 24 22 22 22 21 21 22 22 21 20 20 20 18 18 18 17 15 14 15 17 17
40 38 37 37 36 35 35 34 34 34 32 32 31 30 29 27 25 24 25 26 27 27 25 23 22 21 21 22 23 23 22 22 22 21 20 20 20 19 17 16 17 18
41 40 39 38 37 36 36 36 35 35 33 32 31 31 30 29 28 26 25 26 27 28 27 25 24 24 23 23 24 24 24 24 25 24 23 23 23 22 21 19 18 19
43 42 41 40 39 37 37 36 36 35 34 33 31 30 30 29 30 29 27 27 27 28 28 27 27 27 26 25 25 25 25 25 26 26 26 25 25 24 23 22 21 20
44 43 43 42 41 39 38 38 37 37 35 33 32 31 31 30 30 31 31 29 29 28 28 28 28 28 27 28 27 27 26 26 27 27 27 27 27 27 26 25 23 22
45 45 44 43 43 42 41 40 39 37 36 35 33 32 31 31 30 30 31 32 31 30 29 29 29 29 29 30 30 28 28 27 28 28 29 29 28 29 29 27 26 25
47 46 45 45 45 44 42 41 41 40 38 37 36 34 32 32 32 31 31 32 32 32 32 31 30 31 31 31 32 31 30 29 28 29 30 30 30 30 30 30 29 28
48 47 47 47 46 45 44 42 42 41 40 39 38 37 34 33 33 33 32 32 33 33 33 33 32 32 33 33 33 33 32 31 29 29 30 31 31 31 32 32 31 30
49 49 48 48 47 45 44 43 43 41 40 40 40 39 37 35 34 34 34 34 34 34 35 35 34 34 35 35 35 34 34 33 31 30 31 32 32 32 33 33 33 32
49 49 49 48 47 45 43 43 43 41 39 39 39 39 39 38 36 36 36 36 36 36 36 36 36 37 37 37 37 36 35 35 34 32 32 32 33 33 34 34 34 34
48 48 48 47 46 45 44 42 41 40 39 38 36 36 37 37 37 36 37 37 37 37 37 37 37 38 38 38 38 37 36 36 35 35 34 33 33 34 34 35 35 35
45 45 47 46 45 45 44 43 41 39 39 38 37 35 35 35 35 35 36 37 37 37 38 38 38 38 39 39 39 39 38 38 37 36 36 36 35 34 35 35 36 36
42 43 44 45 45 45 44 44 42 40 39 39 38 37 35 34 34 34 35 36 37 37 37 38 39 39 40 39 39 40 40 39 39 38 38 38 38 37 36 36 36 36
40 41 42 43 45 45 44 44 43 42 40 39 39 39 38 36 35 34 35 35 36 37 38 38 39 39 39 39 39 39 40 41 41 41 40 40 40 40 39 38 37 37
40 40 40 41 42 43 44 43 43 43 42 41 41 41 40 39 37 36 36 36 35 36 38 39 40 39 39 39 39 39 40 41 42 42 42 42 42 42 42 41 40 39
42 41 41 41 40 41 42 42 43 43 44 43 42 41 41 41 40 39 38 37 37 37 38 40 40 40 41 40 39 38 38 39 41 43 44 44 44 44 44 44 44 43
43 43 43 42 41 41 41 41 43 43 43 44 43 42 42 42 42 41 40 39 39 39 39 40 40 41 41 41 40 39 38 38 39 41 43 44 45 45 45 46 46 45
43 43 43 44 43 43 42 42 43 43 43 43 43 43 44 44 44 43 43 42 42 42 42 42 42 42 42 42 41 40 39 39 38 40 43 44 45 46 46 46 46 45
42 42 43 43 43 43 43 44 44 44 44 44 43 43 43 44 45 45 45 45 44 43 44 44 44 44 44 44 44 43 41 41 41 41 43 45 46 47 47 46 46 45
42 42 42 42 42 42 43 43 43 44 44 44 44 43 42 43 45 46 46 46 46 46 46 47 46 45 46 46 46 46 45 44 44 44 44 46 47 48 48 47 46 46
43 42 42 42 42 42 43 42 42 43 42 42 43 43 42 40 40 42 44 45 46 47 47 47 47 46 46 47 46 46 45 45 45 44 45 47 48 48 48 48 47 47
42 42 41 41 41 41 41 40 40 40 40 40 40 42 41 39 36 37 40 41 43 44 44 45 45 45 45 45 46 45 45 45 44 44 45 47 48 48 48 49 49 48
41 41 40 39 40 40 39 37 37 37 37 37 37 38 39 38 37 35 35 36 37 38 39 41 42 41 41 42 42 42 42 43 43 44 46 47 46 46 47 48 50 50
Wind_Direction
206 208 210 211 211 210 210 215 221 222 220 218 219 223 226 227 227 223 225 230 224 219 220 220 220 219 220 221 217 224 234 234 241 251 252 254 242 214 208 214 206 194
208 211 212 212 213 212 211 215 221 224 224 222 221 226 229 229 228 224 223 231 232 225 221 221 223 222 221 222 222 227 234 235 238 246 251 253 249 229 214 213 213 203
210 212 214 215 216 216 213 213 218 223 224 224 222 224 227 229 228 225 221 226 235 235 228 224 224 224 224 225 226 228 233 239 241 242 249 254 253 245 230 217 215 214
213 215 217 219 219 220 216 213 217 221 222 223 223 221 221 224 227 226 221 220 227 235 235 231 228 226 226 227 228 230 232 240 245 243 244 249 252 252 246 231 218 217
218 218 220 221 220 221 219 217 218 220 220 221 223 223 220 219 222 226 225 220 220 227 233 235 233 228 227 229 230 232 233 237 242 242 240 243 248 251 251 247 234 222
220 220 221 221 221 220 221 222 221 220 221 221 221 223 222 219 219 222 227 226 220 221 226 231 234 232 230 231 232 232 232 233 237 239 237 238 243 248 250 250 248 237
221 222 222 221 222 221 221 224 224 221 222 223 222 222 223 222 221 219 223 228 226 222 223 226 231 235 235 235 234 233 232 233 235 237 237 237 239 243 247 248 249 248
222 223 223 222 222 222 223 224 225 224 223 222 222 223 223 224 225 222 221 224 227 228 227 226 229 234 236 236 235 234 233 233 234 236 238 238 238 240 245 248 248 250
221 223 223 223 223 223 224 225 225 226 224 222 222 223 224 224 224 226 224 223 226 230 231 229 227 230 234 236 237 235 233 232 233 235 238 239 240 241 243 246 247 249
218 221 223 224 224 225 226 227 227 228 228 227 225 222 224 225 224 225 226 227 226 227 231 233 229 228 231 234 237 238 237 236 236 237 239 241 243 244 244 246 247 249
217 220 223 224 226 227 227 227 228 229 229 230 229 225 224 226 226 224 224 228 229 228 228 232 232 230 231 231 233 237 239 240 239 239 240 242 246 247 246 246 248 250
219 219 221 225 227 226 227 228 228 227 228 230 232 230 226 226 227 228 225 226 231 232 230 231 233 233 233 234 233 235 238 240 241 241 241 243 246 248 248 248 248 250
220 219 220 224 226 225 224 226 227 225 224 227 231 232 231 228 226 229 230 228 230 234 234 232 233 234 236 236 235 234 235 238 240 242 241 242 244 245 248 249 249 250
220 220 221 222 225 225 224 223 223 222 221 221 224 228 231 229 225 226 232 233 231 233 235 234 233 235 236 237 237 235 233 235 239 242 242 242 243 243 245 249 249 250
221 221 222 222 222 224 224 222 220 220 219 218 219 223 227 228 224 223 228 232 232 232 234 233 233 235 237 237 237 236 235 234 237 241 241 241 242 241 242 246 247 249
221 222 222 222 221 222 224 222 219 218 218 218 219 221 224 226 223 220 222 229 232 232 232 233 233 235 238 239 240 240 240 238 237 240 241 241 242 241 241 243 245 246
221 222 223 223 223 222 223 223 220 218 218 219 219 220 222 224 225 222 220 224 230 232 233 235 237 238 240 243 244 245 245 243 241 241 241 242 243 242 242 242 243 244
220 222 223 224 224 222 223 224 223 220 219 219 220 221 221 222 225 226 223 221 225 232 236 239 242 244 246 247 248 247 247 247 245 243 242 243 244 244 243 243 243 244
218 220 222 224 225 224 224 224 224 223 221 221 221 222 222 222 224 227 227 224 224 228 234 239 242 246 248 250 251 251 249 249 248 247 245 244 245 246 246 246 246 246
217 219 220 223 225 224 223 223 225 226 225 223 222 222 223 223 224 226 228 229 228 227 231 236 240 244 247 250 253 254 252 250 250 250 249 248 247 248 249 249 249 248
216 218 220 221 222 223 223 223 225 226 226 224 223 223 224 225 226 227 228 230 232 232 232 234 238 242 246 248 251 253 254 253 251 250 250 249 249 250 250 251 251 250
215 217 219 220 221 222 222 224 224 225 225 224 222 222 225 227 228 228 229 231 233 235 236 236 238 241 244 247 250 252 252 253 253 251 250 249 250 250 250 251 251 250
214 216 217 219 222 223 224 225 225 226 226 224 221 221 223 226 228 229 231 232 234 235 237 239 239 239 242 245 249 251 250 250 251 251 251 250 251 250 249 250 250 250
215 217 218 220 223 225 227 228 227 227 227 226 225 224 224 226 228 231 232 233 235 236 238 240 241 241 242 244 247 249 250 251 252 252 252 253 254 252 250 249 250 250
215 216 219 221 222 225 229 230 230 231 229 228 228 228 226 226 228 232 234 235 237 238 239 241 243 245 245 246 247 248 249 251 253 252 252 254 255 255 253 252 251 251
214 216 218 221 223 224 228 229 229 230 229 228 229 230 229 228 227 230 234 236 237 239 240 243 245 246 248 250 251 251 250 251 251 252 254 255 255 255 255 255 254 253